Weather History for GMMX - August, 2013

Change the Weather History Date:

Tuesday, August 27, 2013

  Actual Average Record
Temperature  
Mean Temperature 72 °F -  
Max Temperature 83 °F 89 °F 113 °F (2010)
Min Temperature 62 °F 64 °F 62 °F (2013)
Cooling Degree Days 8    
Growing Degree Days 22 (Base 50)    
Moisture  
Dew Point 60 °F    
Average Humidity 67    
Maximum Humidity 94    
Minimum Humidity 38    
Precipitation  
Precipitation 0.00 in 0.01 in - ()
Sea Level Pressure  
Sea Level Pressure 29.94 in    
Wind  
Wind Speed 6 mph ()    
Max Wind Speed 10 mph    
Max Gust Speed -    
Visibility 5.9 miles    
Events      
Averages and records for this station are not official NWS values.
T = Trace of Precipitation, MM = Missing Value Source: Averaged Metar Reports

Daily Weather History Graph

Daily Weather History Graph

Search for Another Location

Airport or City:

Trip Planner

Search our weather history database for the weather conditions in past years. The results will help you decide how hot, cold, wet, or windy it might be!

Date:

Astronomy

Aug. 27, 2013 Rise Set
Actual Time 7:04 AM WEST 8:01 PM WEST
Civil Twilight 6:39 AM WEST 8:26 PM WEST
Nautical Twilight 6:10 AM WEST 8:56 PM WEST
Astronomical Twilight 5:39 AM WEST 9:26 PM WEST
Moon No Moon Rise 1:23 PM WEST (8/27)
Length of Visible Light 13h 47m
Length of Day
12h 57m
Waning Gibbous, 59% of the Moon is Illuminated
Aug 27
Waning Gibbous
Aug 28
Last Quarter
Sep 5
New
Sep 12
First Quarter
Sep 19
Full

Hourly Weather History & Observations

Time (WEST) Temp. Heat Index Dew Point Humidity Pressure Visibility Wind Dir Wind Speed Gust Speed Precip Events Conditions
12:00 AM 69.8 °F - 57.2 °F 64% 29.95 in - WSW 8.1 mph - N/A   Clear
12:30 AM 69.8 °F - 57.2 °F 64% 29.95 in - WSW 5.8 mph - N/A   Clear
1:00 AM 68 °F - 58 °F 63% 29.90 in 6 mi WSW 8.1 mph - -  
1:00 AM 68.0 °F - 59.0 °F 73% 29.95 in - WSW 8.1 mph - N/A   Clear
3:00 AM 64.4 °F - 59.0 °F 83% 29.92 in - WSW 8.1 mph - N/A   Clear
3:30 AM 64.4 °F - 59.0 °F 83% 29.92 in - WSW 6.9 mph - N/A   Clear
4:00 AM 64 °F - 59 °F 77% 29.90 in 6 mi WSW 6.9 mph - -  
4:00 AM 64.4 °F - 59.0 °F 83% 29.92 in - WSW 6.9 mph - N/A   Clear
4:30 AM 62.6 °F - 59.0 °F 88% 29.92 in - WSW 8.1 mph - N/A   Clear
5:00 AM 62.6 °F - 59.0 °F 88% 29.92 in - WSW 6.9 mph - N/A   Clear
5:30 AM 62.6 °F - 59.0 °F 88% 29.92 in - SW 6.9 mph - N/A   Clear
6:00 AM 62.6 °F - 59.0 °F 88% 29.95 in - WSW 5.8 mph - N/A   Clear
6:30 AM 62.6 °F - 59.0 °F 88% 29.95 in - SW 5.8 mph - N/A   Clear
7:00 AM 63 °F - 60 °F 85% 29.92 in 5 mi SW 5.8 mph - -   Scattered Clouds
7:00 AM 62.6 °F - 59.0 °F 88% 29.95 in 5.0 mi SW 5.8 mph - N/A   Partly Cloudy
7:30 AM 62.6 °F - 60.8 °F 94% 29.95 in 6.2 mi West 3.5 mph - N/A   Mostly Cloudy
8:00 AM 62.6 °F - 60.8 °F 94% 29.95 in 4.3 mi West 3.5 mph - N/A   Mostly Cloudy
8:30 AM 64.4 °F - 60.8 °F 88% 29.98 in 6.2 mi West 3.5 mph - N/A   Mostly Cloudy
9:00 AM 66.2 °F - 60.8 °F 83% 29.98 in 5.0 mi West 3.5 mph - N/A   Scattered Clouds
9:30 AM 68.0 °F - 60.8 °F 78% 29.98 in 5.0 mi Variable 2.3 mph - N/A   Scattered Clouds
10:00 AM 69 °F - 61 °F 69% 29.93 in 5 mi West 5.8 mph - -   Mostly Cloudy
10:00 AM 68.0 °F - 60.8 °F 78% 29.98 in 6.2 mi West 4.6 mph - N/A   Scattered Clouds
10:30 AM 69.8 °F - 60.8 °F 73% 29.98 in 5.0 mi West 5.8 mph - N/A   Scattered Clouds
11:00 AM 69.8 °F - 59.0 °F 68% 29.98 in 6.2 mi West 5.8 mph - N/A   Scattered Clouds
11:30 AM 69.8 °F - 59.0 °F 68% 29.98 in 6.2 mi WSW 4.6 mph - N/A   Scattered Clouds
12:00 PM 71.6 °F - 59.0 °F 64% 29.98 in 6.2 mi Variable 2.3 mph - N/A   Scattered Clouds
12:30 PM 71.6 °F - 60.8 °F 69% 29.98 in 6.2 mi West 4.6 mph - N/A   Scattered Clouds
1:00 PM 72 °F - 60 °F 57% 29.92 in 6 mi West 4.6 mph - -   Mostly Cloudy
1:00 PM 71.6 °F - 60.8 °F 69% 29.98 in 6.2 mi Variable 4.6 mph - N/A   Scattered Clouds
1:30 PM 73.4 °F - 60.8 °F 65% 29.98 in 6.2 mi SW 5.8 mph - N/A   Scattered Clouds
2:00 PM 75.2 °F - 60.8 °F 61% 29.98 in 6.2 mi Variable 4.6 mph - N/A   Scattered Clouds
2:30 PM 75.2 °F - 60.8 °F 61% 29.98 in 6.2 mi SW 6.9 mph - N/A   Scattered Clouds
3:00 PM 77.0 °F - 60.8 °F 57% 29.95 in 6.2 mi Variable 4.6 mph - N/A   Scattered Clouds
3:30 PM 78.8 °F - 60.8 °F 54% 29.95 in 6.2 mi WSW 6.9 mph - N/A   Scattered Clouds
4:00 PM 79 °F - 61 °F 44% 29.86 in 6 mi WSW 4.6 mph - -   Partly Cloudy
4:00 PM 78.8 °F - 60.8 °F 54% 29.95 in 6.2 mi WSW 6.9 mph - N/A   Scattered Clouds
4:30 PM 80.6 °F 81.5 °F 60.8 °F 51% 29.95 in 6.2 mi Variable 5.8 mph - N/A   Scattered Clouds
5:00 PM 80.6 °F 81.5 °F 60.8 °F 51% 29.92 in 6.2 mi West 5.8 mph - N/A   Scattered Clouds
5:30 PM 82.4 °F 82.9 °F 60.8 °F 48% 29.92 in 6.2 mi Variable 4.6 mph - N/A   Scattered Clouds
6:00 PM 84.2 °F 84.4 °F 60.8 °F 45% 29.92 in 6.2 mi NW 3.5 mph - N/A   Scattered Clouds
6:30 PM 82.4 °F 82.9 °F 60.8 °F 48% 29.92 in - West 4.6 mph - N/A   Clear
7:00 PM 82 °F - 61 °F 38% 29.83 in 6 mi WSW 5.8 mph - -  
7:00 PM 82.4 °F 82.9 °F 60.8 °F 48% 29.92 in - WSW 5.8 mph - N/A   Clear
7:30 PM 82.4 °F 82.9 °F 60.8 °F 48% 29.92 in - SW 5.8 mph - N/A   Clear
8:00 PM 80.6 °F 81.5 °F 60.8 °F 51% 29.92 in - WSW 6.9 mph - N/A   Clear
8:30 PM 78.8 °F - 60.8 °F 54% 29.92 in - WSW 6.9 mph - N/A   Clear
9:00 PM 78.8 °F - 60.8 °F 54% 29.95 in - WSW 4.6 mph - N/A   Clear
9:30 PM 77.0 °F - 60.8 °F 57% 29.95 in - North 6.9 mph - N/A   Clear
10:00 PM 76 °F - 62 °F 52% 29.89 in 6 mi North 9.2 mph - -   Clear
10:00 PM 77.0 °F - 60.8 °F 57% 29.95 in - North 8.1 mph - N/A   Clear
10:30 PM 75.2 °F - 60.8 °F 61% 29.98 in - NNE 8.1 mph - N/A   Clear
11:00 PM 73.4 °F - 60.8 °F 65% 29.98 in - NNE 9.2 mph - N/A   Clear
11:30 PM 73.4 °F - 60.8 °F 65% 29.98 in - NE 10.4 mph - N/A   Clear